Torna al catalogo

PHASMA-LAMARR

AttivoMeteoSSO
NORAD 66759·PAYLOAD·🇺🇸 United States
Questo nome del satellite non è ancora stato confermato da fonti ufficiali.

Lanciato Nov 28, 2025 da Vandenberg Space Force Base

Loading…

Prossimi Passaggi (prossime 24 ore)

TLE

AggiornatoSource: Space-Track

Epoca: Sep 14, 2026, 11:04 UTC

1 66759U 25276CX  26257.46122813  .00004640  00000-0  20705-3 0  9995
2 66759  97.4093 329.8671 0001616  47.6556 312.4817 15.21867585 44013

Traccia PHASMA-LAMARR in tempo reale con AllMySat

Download on the App Store